Вернуться в каталог

METEOSAT 5 AKM

АктивенMEO
NORAD 21904·ROCKET BODY·🇪🇺 EU

Запущен Mar 2, 1991 с Guiana Space Centre

Loading…

Ближайшие Пролёты (ближайшие 24 часа)

TLE

СвежийSource: Space-Track

Эпоха: Sep 14, 2026, 08:45 UTC

1 21904U 91015E   26257.36467067  .00000024  00000-0  00000-0 0  9999
2 21904  12.1852 337.7896 0159519 239.0933 119.3498  1.00137740117264

Отслеживайте METEOSAT 5 AKM в реальном времени с AllMySat

Download on the App Store